AirNav   Pilot Hours Calculator
 
 1636 users online  

2T7 Van Camp's Heliport
Tecumseh, Michigan, USA

GOING TO TECUMSEH?


FAA INFORMATION EFFECTIVE 09 SEPTEMBER 2021

Location

FAA Identifier: 2T7
Lat/Long: 42-01-09.2400N 083-50-55.1400W
42-01.154000N 083-50.919000W
42.0192333,-83.8486500
(estimated)
Elevation: 740 ft. / 226 m (estimated)
From city: 5 miles NE of TECUMSEH, MI
Time zone: UTC -4 (UTC -5 during Standard Time)
Zip code: 49286

Heliport Operations

Heliport use: Open to the public
Activation date: 11/2003
Control tower: no
ARTCC: CLEVELAND CENTER
FSS: LANSING FLIGHT SERVICE STATION
NOTAMs facility: LAN (NOTAM-D service available)
Attendance: IREG
Wind indicator: yes
Segmented circle: no

Heliport Communications

CTAF: 122.9
WX ASOS at ARB (13 nm N): PHONE 734-668-7173
WX ASOS at ADG (14 nm SW): 118.375 (517-265-9089)
WX AWOS-3 at DUH (19 nm SE): 119.175 (734-856-1563)
WX AWOS-3 at TTF (19 nm E): 119.075 (734-384-0259)
WX ASOS at YIP (19 nm NE): PHONE 734-961-6843

Nearby radio navigation aids

VOR radial/distance  VOR name  Freq  Var
CRLr267/17.5CARLETON VOR/DME115.7003W
DXOr248/24.4DETROIT VOR/DME113.4006W
SVMr209/26.0SALEM VORTAC114.3003W

 
NDB name  Hdg/Dist  Freq  Var  ID
TECUMSEH124/1.923906WTCU - -.-. ..-
ADRIAN055/13.627806WADG .- -.. --.
GROSSE ILE268/31.441907WRYS .-. -.-- ...

Heliport Services

Parking: tiedowns
Airframe service: MAJOR
Powerplant service: MAJOR

Runway Information

Helipad H1

Dimensions: 90 x 50 ft. / 27 x 15 m
Surface: turf, in good condition
Runway edge markings: MKD WITH CONES.
Traffic pattern: leftleft

Heliport Ownership and Management from official FAA records

Ownership: Privately-owned
Owner: CRAIG VAN CAMP
8735 MILLS MACON HWY
TECUMSEH, MI 49286
Phone 517-424-7675
Manager: CRAIG VAN CAMP
8735 MILLS MACON HWY
TECUMSEH, MI 49286
Phone 517-605-3129

Heliport Operational Statistics

Aircraft based on the field: 2
Single engine airplanes: 1
Helicopters: 1
    
Aircraft operations: 100/year *
50% transient general aviation
50% local general aviation
* for 12-month period ending 31 December 2016

Additional Remarks

A52-H1 35 FT TREE 102 FT FM HELIPORT 180 DEGS, APCH RATIO 2:1. 60 FT TREE 80 FT FM HELIPORT 270 DEGS APCH RATIO 2:1.
APCH/DEP USE ADJ N-S RWY.
FOR CD CTC DETROIT APCH AT 800-499-8181.

Instrument Procedures

There are no published instrument procedures at 2T7.

Some nearby airports with instrument procedures:

KARB - Ann Arbor Municipal Airport (13 nm N)
KADG - Lenawee County Airport (14 nm SW)
KDUH - Toledo Suburban Airport (19 nm SE)
KTTF - Custer Airport (19 nm E)
KYIP - Willow Run Airport (19 nm NE)
 
Loc | Ops | Rwys | IFR | FBO | Links
Com | Nav | Svcs | Stats | Notes
Area around 2T7 (Van Camp's Heliport)
 
Road maps at: MapQuest Bing Google
 
Aerial photo
No photo
 
Sectional chart

 
Airport distance calculator
Flying to Van Camp's Heliport? Find the distance to fly.

From to 2T7

Sunrise and sunset
Times for 21-Sep-2021
 Local
(UTC-4)
 Zulu
(UTC)
Morning civil twilight06:5510:55
Sunrise07:2311:23
Sunset19:3423:34
Evening civil twilight20:0200:02

Current date and time
Zulu (UTC)  21-Sep-2021 19:55:29
Local (UTC-4)  21-Sep-2021 15:55:29
 
METAR
KARB 
13nm NE 
734-668-7173
211853Z 22008KT 10SM FEW025 BKN047 BKN060 25/19 A3002 RMK AO2 SLP160 T02500189
KADG 
14nm SW 
211853Z AUTO 19008KT 10SM FEW028 BKN040 OVC055 24/18 A3003 RMK AO2 SLP167 T02390183
KYIP 
19nm NE 
211853Z 18009KT 10SM FEW015 27/20 A3003 RMK AO2 SLP160 T02720200
KDUH 
19nm SE 
211935Z AUTO 18006KT 7SM OVC032 22/21 A3003 RMK AO2 T02150210
KTTF 
20nm E 
211935Z AUTO 19009G15KT 10SM SCT010 OVC047 23/20 A3002 RMK AO2 T02250201
TAF
KYIP 
19nm NE 
211120Z 2112/2212 18012G19KT P6SM BKN028 OVC060 FM211900 17010KT 6SM -SHRA BKN022 OVC050 TEMPO 2122/2201 2SM TSRA BR BKN015 OVC035CB FM220300 35010KT 3SM RA BR BKN008 OVC022 FM220900 34012KT 4SM RA BR OVC008
NOTAMs
Click for the latest NOTAMs
NOTAMs are issued by the DoD/FAA and will open in a separate window not controlled by AirNav.

 

 
 

Would you like to see your business listed on this page?

 If your business provides an interesting product or service to pilots, flight crews, aircraft, or users of the Van Camp's Heliport, you should consider listing it here.  To start the listing process, click on the button below
 
Add a business
 

Other Pages about Van Camp's Heliport

Page from the Michigan Airport Directory (PDF)
 
Update a link
 
Copyright © AirNav, LLC. All rights reserved. Privacy Policy  Contact